Regional Weather Roundup
Issued by NWS Wakefield, VA

Home | Current Version | Previous Version | Graphics & Text | Print | Product List | Glossary On
Versions: 1 2 3 4 5 6 7 8 9 10 11 12 13 14 15 16 17 18 19 20 21 22 23 24 25 26 27 28 29 30 31 32 33 34 35 36 37 38 39 40 41 42 43 44 45 46 47 48 49 50
000
ASUS41 KAKQ 271910
RWRAKQ

REGIONAL WEATHER ROUNDUP
NATIONAL WEATHER SERVICE WAKEFIELD VA
200 PM EST TUE JAN 27 2015

Note: "fair" indicates few or no clouds below 12,000 feet with no
significant weather and/or obstructions to visibility. * = Denotes
station may not report precipitation (e.g., rain,snow,etc.),
thunder or fog.

VAZ042-051-052>054-056-272000-
NORTHERN VIRGINIA

CITY           SKY/WX    TMP DP  RH WIND       PRES   REMARKS
WASH NATIONAL  CLOUDY    36  23  59 NW17      29.81S
DULLES         PTSUNNY   31  22  69 NW18      29.81S WCI  19
FORT BELVOIR   PTSUNNY   34  22  63 NW20      29.81S WCI  22
QUANTICO       PTSUNNY   35  24  64 N15G23    29.82S
FREDERICKSBRG* PTSUNNY   36  26  65 NW12      29.80S
STAFFORD*      PTSUNNY   34  24  66 N14       29.84S WCI  24
WARRENTON      PTSUNNY   36  29  76 N12       29.80S
CULPEPER*      MOSUNNY   36  25  64 N13G18    29.81S
MANASSAS*      PTSUNNY   34  27  75 N16G23    29.82S WCI  23
LEESBURG*      CLOUDY    32  28  86 N16       29.82S WCI  21
WINCHESTER     CLOUDY    32  19  59 NW17      29.82S WCI  21
FRONT ROYAL*   CLOUDY    32  23  69 W7        29.81F
LURAY*         CLOUDY    32  27  80 NW7       29.82S
$$

VAZ048-049-060>072-079>083-272000-
CENTRAL AND SOUTH CENTRAL VIRGINIA

CITY           SKY/WX    TMP DP  RH WIND       PRES   REMARKS
RICHMOND       CLOUDY    39  25  56 NW15      29.78F
CHESTERFIELD*  CLOUDY    36  19  51 N10       29.80F
PETERSBURG*    FLURRIES  36  29  75 NW10G17   29.80S
HANOVER        PTSUNNY   36  24  62 NW10G18   29.80F
TAPPAHANNOCK*  CLOUDY    35  23  61 NW7       29.79S
QUINTON*       CLOUDY    36  25  64 N8        29.78F
CHARLOTTSVILLE PTSUNNY   35  20  54 N9        29.79F
GORDONSVILLE*  CLOUDY    34  25  70 W5        29.79S
ORANGE*        CLOUDY    36  30  80 SW6       29.81S
LOUISA*        FLURRIES  36  28  75 NW6       29.78S
BUMPASS*       CLOUDY    36  25  64 N6        29.79S
FARMVILLE*     CLOUDY    43  24  48 N5        29.78F
CREWE*         CLOUDY    36  27  69 CALM      29.79S
FORT PICKETT*  CLOUDY    34  30  87 N7        29.79S
CHASE CITY*    FAIR      42  24  48 W7        29.78S
CLARKSVILLE*   FAIR      41  21  45 NW7       29.78F
SOUTH HILL*    CLOUDY    36  27  69 N6        29.84S
LAWRENCEVILLE* CLOUDY    34  29  84 NW5       29.79S
EMPORIA*       FLURRIES  32  30  93 W6        29.81S
$$

VAZ088>098-272000-
SOUTHEAST VIRGINIA

CITY           SKY/WX    TMP DP  RH WIND       PRES   REMARKS
NORFOLK        MOSUNNY   36  26  67 NW12G18   29.74F
VIRGINIA BEACH PTSUNNY   37  28  70 NW15      29.73F
NORFOLK NAVAL  PTSUNNY   38  28  67 NW13      29.76S
WEST POINT*    CLOUDY    37  25  60 NW7       29.80S
SALUDA*        MOCLDY    35  26  70 NW10G18   29.76S
NEWPORT NEWS   CLOUDY    38  26  62 N10       29.76S
LANGLEY AFB    MOSUNNY   37  28  71 NW10G17   29.75S
FORT EUSTIS    CLOUDY    36  28  74 N12       29.75S
WILLIAMSBURG*    N/A     39  28  65 N13G20    29.78S
HR EXEC AP*    CLOUDY    36  27  69 N8G18     29.78S
FRANKLIN*      CLOUDY    33  28  80 NW9       29.78S
WAKEFIELD      CLOUDY    36  25  64 NW8       29.78S
$$

VAZ020-022-025-037-045-272000-
WEST CENTRAL AND SOUTHWEST VIRGINIA

CITY           SKY/WX    TMP DP  RH WIND       PRES   REMARKS
STAUNTON*      CLOUDY    32  21  63 NE12      29.81S WCI  23
WAYNESBORO*    CLOUDY    30  19  62 N8        29.77F
HOT SPRINGS VA SUNNY     25  10  54 NW17      29.64S WCI  11
LYNCHBURG      SUNNY     39   6  25 N8        29.79F
DANVILLE       SUNNY     44  10  25 N10       29.80F
SOUTH BOSTON*  FAIR      41  10  28 NW8G17    29.80S
MARTINSVILLE   SUNNY     43   9  24 NW13      29.83S
ROANOKE        MOSUNNY   39   5  24 NW14G22   29.81F
BLACKSBURG     SUNNY     33   4  29 W13G21    29.82S WCI  24
DUBLIN*        SUNNY     36   8  31 W14       29.81F
MARION*        SUNNY     32  11  42 W16G26    29.84S WCI  21
HILLSVILLE*    SUNNY     32   4  31 NW23G29   29.76R WCI  19
RICHLANDS*     FAIR      29  13  49 NW6       29.84F
WISE*          PTSUNNY   32  19  59 W10       29.88S WCI  24
ABINGDON*      CLOUDY    34  20  56 NW14      29.89S WCI  25
$$

MDZ021>025-VAZ099-100-272000-
SOUTHERN MARYLAND AND THE DELMARVA PENINSULA

CITY           SKY/WX    TMP DP  RH WIND       PRES   REMARKS
PATUXENT RIVER MOSUNNY   35  25  66 NW21      29.75F WCI  24
BAY BRIDGE APT   N/A     34  23  64 NW13G20   29.76S WCI  25
LEONARDTOWN    PTSUNNY   34  25  69 NW10G17   29.78S
DOVER          SUNNY     34  26  74 W18       29.71S WCI  23
GEORGETOWN     CLOUDY    33  24  69 N8G17     29.71S
EASTON         PTSUNNY   36  27  69 NW13G21   29.78F
CAMBRIDGE      PTSUNNY   36  28  75 NW15G21   29.74S
SALISBURY      CLOUDY    35  26  69 NW13      29.72S
OCEAN CITY     CLOUDY    32  25  75 N14       29.71S WCI  22
WALLOPS ISLAND CLOUDY    33  26  75 N8        29.72S
ACCOMACK*      CLOUDY    34  27  75 NW15G28   29.73S WCI  24
$$

NCZ012>017-030>032-272000-
NORTH CENTRAL AND EASTERN NORTH CAROLINA

CITY           SKY/WX    TMP DP  RH WIND       PRES   REMARKS
ROANOKE RAPIDS CLOUDY    36  30  80 NW10      29.80S
RALEIGH        MOSUNNY   41  19  41 VRB6      29.80F
ELIZABETH CITY CLOUDY    34  28  79 NW17G23   29.75S WCI  23
AHOSKIE*       CLOUDY    33  27  76 N6        29.80R
EDENTON*       CLOUDY    34  30  86 NW10G16   29.77R
CURRITUCK*     CLOUDY    35  28  76 NW8G18    29.75S
KILL DEVIL HLS CLOUDY    34  31  87 NW10G17   29.72R
MANTEO         CLOUDY    34  28  80 NW9G18    29.74R
CAPE HATTERAS  CLOUDY    34  31  88 VRB7G18   29.73S
TARBORO*       CLOUDY    37  29  75 NW10      29.81S
GOLDSBORO      CLOUDY    38  35  87 N9        29.79S
WASHINGTON     CLOUDY    35  28  74 N10G21    29.79S
GREENVILLE     CLOUDY    37  30  75 N10       29.82S
NEW BERN       CLOUDY    39  28  64 N13       29.79S
WILMINGTON     CLOUDY    41  31  67 NW12      29.80S
$$

VAZ048-272000-
ELSEWHERE

CITY           SKY/WX    TMP DP  RH WIND       PRES   REMARKS
HARRISBURG PA  PTSUNNY   30  13  49 NW15      29.79F WCI  19
BALTIMORE      PTSUNNY   35  21  56 NW15G26   29.76F
ANNAPOLIS      MOSUNNY   35  22  58 NW15      29.76F
ANDREWS AFB    CLOUDY    33  24  69 NW15      29.77F WCI  23
PHILADELPHIA   PTSUNNY   33  12  41 NW22      29.71F WCI  21
HENDERSON NC   SUNNY     41  21  43 N7        29.78F
GREENSBORO     MOSUNNY   43   9  24 N9G17     29.79F
ROCKY MOUNT    CLOUDY    37  28  70 NW9       29.81R
$$

VAZ100-272000-
MARINE

STATION/POSITION TIME  TEMP    WIND        PRES    WAVE   SWELL
                       AIR SEA DIR/SP/G            HT/PER HT/PER
                 (UTC) (F)     (DEG/KT/KT) (MB)    (FT/S) (FT/S)
BRANDYWINE LGT   1900   31 37  340/ 19/ 25 1005.6S
CAPE MAY NJ      1900   32 38  350/ 13/ 19 1005.2S
LEWES DE         1900   32 37  330/ 22/ 25 1005.8R
15NM E FENWICK I 1900   32 42              1004.4F  11/12
OCEAN-CITY-INLET 1900   32 39  360/ 13/ 16 1005.4R
WACHAPREAGUE VA  1900   33 40  320/  5/ 16 1006.5R
THOMAS POINT MD  1900   34 37  330/ 19/ 22 1008.3F
GOOSES REEF MD   1900   34     VRB 16/ 19  1006.7S
COVE POINT MD    1900   32     330/ 16/ 18 1007.4S
SOLOMONS ISLAND  1900      38                N/A
BISHOPS HEAD MD  1900   34 37  330/ 16/ 20 1006.6F
PINEY POINT MD   1900          340/ 19/ 21   N/A
POTOMAC MD       1900   34     330/ 16/ 19 1006.7S
CAMBRIDGE MD     1900   33 36  330/ 13/ 16 1006.9F
LEWISETTA VA     1900   33 38  320/ 17/ 20 1007.8S
RAPPAHANNOCK LGT 1900          330/ 18/ 21 1007.5R
STINGRAY PT      1900   35     320/ 14/ 17 1007.9S
YORK RVR RNG VA  1900   35     320/ 15/ 18 1006.9R
JAMESTOWN VA     1900   33     360/ 14/ 17   N/A
DOMINION TERM VA 1900   34     330/ 12/ 17 1007.5F
KIPTOPEKE VA     1900      45  330/ 17/ 21   N/A
CHES BAY BRIDGE  1900   35 41  310/ 17/ 20 1006.8S
CAPE HENRY VA    1900   34     320/ 14/ 19 1005.8R
CHESAPEAKE LGHT  1800   34     340/ 23/ 27 1006.9F
WILLOUBY STN VA  1900   34     330/ 13/ 14 1007.8F
S CRANEY ISL VA  1900          330/ 11/ 15 1007.3F
CAPE HENRY BUOY  1900      44                N/A     8/14   5/14
1ST LANDING BUOY 1900   35     320/ 16/ 19 1006.8R
CAPE CHARLES BUO 1900      42                N/A     7/13   7/13
OFFSHORE WE BUOY 1900      47                N/A     9/13   8/13
64NM E OF VA BCH 1900   36 51  350/ 21/ 29 1004.6R  15/13  13/13
DUCK PIER NC     1900   34 43  340/ 19/ 22 1005.5S
44100 DUCK FRF   1900      46                N/A    11/13   8/13
44056 DUCK FRF   1900      44                N/A     8/13   5/13
OREGON INLET NC  1900   35 45  320/ 15/ 18 1006.5R
HATTERAS NC      1900   36 48  330/ 16/ 20 1006.8F
DIAMOND SHLS NC  1900   38 70  330/ 19/ 25 1005.5F  10/12   8/12


USA.gov is the U.S. government's official web portal to all federal, state and local government web resources and services.